Location: ?
(35.4064°N, 139.3593°E)
Time: 02:56:00
(UTC+00:00)

Cosmos 2278 Rocket - Pass Details

Date: 18 April 2024
Orbit: 839 x 846 km, 71.0° (Epoch: 20 May)

Event Time Altitude Azimuth Distance (km) Brightness Sun altitude
Rises 17:58:55 0° 327° (NNW) 3,411 5.4 -24.1°
Reaches altitude 10° 18:01:36 10° 317° (NW) 2,471 4.5 -23.7°
Enters shadow 18:03:26 19° 304° (NW) 1,917 3.8 -23.4°
